DW9499 Weather Reports


Display with metric or nautical units.
time (UTC)temp
F
wind
direction
speed
MPH
gust
MPH
rain 1hr
in
rain 24hr
in
rain mn
in
humidity
%
barometer
mb
20260505010108 76 67 0.0 0.0 0.00 0.00 0.00 34 999.3
20260505004548 78 68 0.0 0.0 0.00 0.00 0.00 33 999.3
20260505003048 78 62 0.0 0.0 0.00 0.00 0.00 34 999.5
20260505001544 80 133 0.0 0.0 0.00 0.00 0.00 27 999.5
20260505000047 81 72 0.0 0.0 0.00 0.00 0.00 26 999.7
20260504234541 82 71 0.0 0.0 0.00 0.00 0.00 22 999.9
20260504233040 81 66 0.0 0.0 0.00 0.00 0.00 23 999.9
20260504231544 82 69 0.0 0.0 0.00 0.00 0.00 23 1000.1
20260504230044 82 101 0.0 0.0 0.00 0.00 0.00 23 1000.1
20260504224538 81 118 0.0 1.0 0.00 0.00 0.00 25 1000.2
20260504223036 81 199 0.0 0.0 0.00 0.00 0.00 24 1000.2
20260504221548 80 130 0.0 0.0 0.00 0.00 0.00 25 1000.4
20260504220035 80 77 0.0 0.0 0.00 0.00 0.00 24 1000.5
20260504214534 80 195 0.0 0.0 0.00 0.00 0.00 25 1000.5
20260504213042 80 212 0.0 1.0 0.00 0.00 0.00 24 1000.8
20260504211535 80 148 2.0 7.0 0.00 0.00 0.00 25 1000.9
20260504210029 80 138 0.0 2.0 0.00 0.00 0.00 24 1001.2
20260504204530 80 240 0.0 3.0 0.00 0.00 0.00 25 1001.3
20260504203040 80 49 0.0 2.0 0.00 0.00 0.00 25 1001.1
20260504201527 79 129 6.0 15.0 0.00 0.00 0.00 25 1001.4
20260504200024 80 146 0.0 2.0 0.00 0.00 0.00 27 1001.6
20260504194531 80 84 0.0 4.0 0.00 0.00 0.00 28 1001.5
20260504193024 82 78 0.0 5.0 0.00 0.00 0.00 27 1001.5
20260504191532 82 141 0.0 4.0 0.00 0.00 0.00 25 1001.8
20260504190021 82 110 0.0 1.0 0.00 0.00 0.00 24 1001.8
20260504184520 82 160 0.0 4.0 0.00 0.00 0.00 24 1001.9
20260504183016 82 143 0.0 3.0 0.00 0.00 0.00 26 1002.1
20260504181517 81 22 0.0 0.0 0.00 0.00 0.00 28 1002.3
20260504180015 80 27 0.0 1.0 0.00 0.00 0.00 29 1002.4
20260504174508 80 27 0.0 0.0 0.00 0.00 0.00 29 1002.6
20260504173005 79 48 0.0 0.0 0.00 0.00 0.00 29 1002.7
20260504171503 78 13 0.0 0.0 0.00 0.00 0.00 31 1002.9
20260504081550 45 239 0.0 1.0 0.00 0.00 0.00 81 1003.0
20260504050008 55 68 0.0 0.0 0.00 0.00 0.00 59 1004.0
20260504044509 56 76 0.0 2.0 0.00 0.00 0.00 58 1004.2
20260504043006 57 84 0.0 0.0 0.00 0.00 0.00 57 1004.4
20260504041605 58 60 0.0 0.0 0.00 0.00 0.00 56 1004.5
20260504040125 59 141 0.0 1.0 0.00 0.00 0.00 50 1004.6
20260504034504 60 78 0.0 0.0 0.00 0.00 0.00 50 1004.6
20260504033003 61 51 0.0 0.0 0.00 0.00 0.00 49 1004.6
20260504031503 62 53 0.0 0.0 0.00 0.00 0.00 48 1004.7
20260504030002 63 57 0.0 0.0 0.00 0.00 0.00 46 1004.7
20260504024502 65 51 0.0 0.0 0.00 0.00 0.00 43 1004.7
20260504023001 66 52 0.0 0.0 0.00 0.00 0.00 42 1004.7
20260504021600 67 58 0.0 0.0 0.00 0.00 0.00 40 1004.7
20260504014607 70 35 0.0 0.0 0.00 0.00 0.00 36 1004.5
20260504013103 72 44 0.0 0.0 0.00 0.00 0.00 31 1004.4
20260504011558 74 48 0.0 0.0 0.00 0.00 0.00 28 1004.4